| time (UTC) | temp F | wind direction | speed knots | gust knots | rain 1hr in | rain 24hr in | rain mn in | humidity % | barometer mb |
| 20260510105132 | 74 | 79 | 7.8 | 12.2 | 0.00 | 0.19 | 0.00 | 89 | 1017.8 |
| 20260510104632 | 74 | 90 | 6.1 | 13.9 | 0.00 | 0.19 | 0.00 | 91 | 1017.8 |
| 20260510104131 | 74 | 89 | 7.0 | 13.9 | 0.00 | 0.19 | 0.00 | 90 | 1017.8 |
| 20260510103631 | 74 | 92 | 8.7 | 13.9 | 0.00 | 0.19 | 0.00 | 90 | 1018.1 |
| 20260510103132 | 74 | 58 | 11.3 | 13.0 | 0.00 | 0.19 | 0.00 | 89 | 1018.1 |
| 20260510102633 | 74 | 60 | 5.2 | 14.8 | 0.00 | 0.19 | 0.00 | 88 | 1018.0 |
| 20260510102131 | 74 | 77 | 9.6 | 16.5 | 0.00 | 0.19 | 0.00 | 87 | 1018.1 |
| 20260510101632 | 74 | 86 | 11.3 | 16.5 | 0.00 | 0.19 | 0.00 | 87 | 1017.9 |
| 20260510101402 | 74 | 71 | 9.6 | 16.5 | 0.00 | 0.19 | 0.00 | 87 | 1017.8 |
| 20260510100632 | 74 | 82 | 5.2 | 13.9 | 0.00 | 0.19 | 0.00 | 87 | 1017.9 |
| 20260510100132 | 75 | 62 | 3.5 | 17.4 | 0.00 | 0.19 | 0.00 | 87 | 1017.9 |
| 20260510095631 | 75 | 75 | 11.3 | 18.2 | 0.00 | 0.19 | 0.19 | 87 | 1018.0 |
| 20260510095402 | 75 | 65 | 8.7 | 18.2 | 0.00 | 0.19 | 0.19 | 87 | 1018.0 |
| 20260510094902 | 75 | 56 | 8.7 | 18.2 | 0.00 | 0.19 | 0.19 | 86 | 1018.1 |
| 20260510094131 | 75 | 25 | 9.6 | 18.2 | 0.00 | 0.19 | 0.19 | 86 | 1018.5 |
| 20260510093632 | 75 | 81 | 11.3 | 18.2 | 0.00 | 0.19 | 0.19 | 87 | 1018.4 |
| 20260510093132 | 75 | 86 | 8.7 | 18.2 | 0.00 | 0.19 | 0.19 | 87 | 1018.4 |
| 20260510092632 | 75 | 106 | 12.2 | 18.2 | 0.00 | 0.19 | 0.19 | 87 | 1018.6 |
| 20260510092403 | 75 | 75 | 7.8 | 18.2 | 0.00 | 0.19 | 0.19 | 86 | 1018.4 |
| 20260510091632 | 75 | 80 | 7.0 | 18.2 | 0.00 | 0.19 | 0.19 | 87 | 1018.4 |
| 20260510091132 | 74 | 56 | 9.6 | 17.4 | 0.00 | 0.19 | 0.19 | 87 | 1018.5 |
| 20260510090904 | 75 | 48 | 7.8 | 18.2 | 0.00 | 0.19 | 0.19 | 87 | 1018.6 |
| 20260510090403 | 74 | 89 | 7.0 | 18.2 | 0.00 | 0.19 | 0.19 | 88 | 1018.8 |
| 20260510085632 | 74 | 44 | 9.6 | 18.2 | 0.00 | 0.19 | 0.19 | 88 | 1018.6 |
| 20260510085132 | 74 | 72 | 7.8 | 14.8 | 0.00 | 0.19 | 0.19 | 89 | 1018.4 |
| 20260510084632 | 74 | 43 | 7.8 | 16.5 | 0.00 | 0.19 | 0.19 | 89 | 1018.6 |
| 20260510084402 | 74 | 39 | 8.7 | 16.5 | 0.00 | 0.19 | 0.19 | 89 | 1018.5 |
| 20260510084237 | 74 | 69 | 5.2 | 16.5 | 0.00 | 0.19 | 0.19 | 90 | 1018.6 |
| 20260510083132 | 74 | 87 | 7.0 | 16.5 | 0.00 | 0.19 | 0.19 | 90 | 1018.9 |
| 20260510082632 | 74 | 70 | 5.2 | 14.8 | 0.00 | 0.19 | 0.19 | 89 | 1018.5 |
| 20260510082133 | 74 | 58 | 7.0 | 16.5 | 0.00 | 0.19 | 0.19 | 90 | 1018.5 |
| 20260510081902 | 73 | 49 | 7.0 | 18.2 | 0.00 | 0.19 | 0.19 | 89 | 1018.5 |
| 20260510081132 | 73 | 52 | 7.8 | 18.2 | 0.00 | 0.19 | 0.19 | 90 | 1018.6 |
| 20260510080902 | 73 | 122 | 6.1 | 16.5 | 0.00 | 0.19 | 0.19 | 91 | 1018.6 |
| 20260510080131 | 73 | 79 | 8.7 | 16.5 | 0.00 | 0.19 | 0.19 | 90 | 1018.6 |
| 20260510075632 | 73 | 128 | 11.3 | 16.5 | 0.00 | 0.19 | 0.19 | 90 | 1018.3 |
| 20260510075131 | 73 | 65 | 12.2 | 18.2 | 0.00 | 0.19 | 0.19 | 89 | 1018.2 |
| 20260510074631 | 73 | 71 | 9.6 | 18.2 | 0.00 | 0.19 | 0.19 | 89 | 1018.2 |
| 20260510074131 | 73 | 59 | 4.3 | 20.9 | 0.00 | 0.19 | 0.19 | 89 | 1018.3 |
| 20260510073631 | 74 | 94 | 7.0 | 20.9 | 0.00 | 0.19 | 0.19 | 89 | 1018.4 |
| 20260510073130 | 74 | 121 | 12.2 | 17.4 | 0.00 | 0.19 | 0.19 | 89 | 1018.2 |
| 20260510072630 | 73 | 111 | 5.2 | 16.5 | 0.00 | 0.19 | 0.19 | 88 | 1018.2 |
| 20260510072129 | 73 | 79 | 10.4 | 20.0 | 0.00 | 0.19 | 0.19 | 88 | 1018.1 |
| 20260510071630 | 73 | 94 | 7.0 | 20.0 | 0.00 | 0.19 | 0.19 | 89 | 1018.1 |
| 20260510071401 | 73 | 143 | 10.4 | 18.2 | 0.00 | 0.19 | 0.19 | 90 | 1018.0 |
| 20260510070629 | 73 | 83 | 7.8 | 17.4 | 0.00 | 0.19 | 0.19 | 90 | 1017.9 |
| 20260510070133 | 73 | 84 | 5.2 | 13.9 | 0.00 | 0.19 | 0.19 | 91 | 1017.7 |
| 20260510065630 | 73 | 111 | 5.2 | 17.4 | 0.12 | 0.19 | 0.19 | 91 | 1017.7 |
| 20260510065130 | 73 | 120 | 7.0 | 17.4 | 0.18 | 0.19 | 0.19 | 91 | 1017.7 |
| 20260510064901 | 73 | 117 | 11.3 | 16.5 | 0.18 | 0.19 | 0.19 | 91 | 1017.6 |
| 20260510064118 | 73 | 113 | 0.0 | 18.2 | 0.18 | 0.19 | 0.19 | 92 | 1017.7 |
| 20260510063849 | 73 | 82 | 5.2 | 18.2 | 0.18 | 0.19 | 0.19 | 92 | 1017.6 |
| 20260510063117 | 73 | 40 | 5.2 | 20.9 | 0.18 | 0.19 | 0.19 | 92 | 1017.3 |
| 20260510062848 | 73 | 72 | 9.6 | 20.9 | 0.18 | 0.19 | 0.19 | 92 | 1017.3 |
| 20260510062116 | 73 | 84 | 7.0 | 16.5 | 0.18 | 0.19 | 0.19 | 92 | 1017.1 |
| 20260510061617 | 73 | 102 | 11.3 | 16.5 | 0.18 | 0.19 | 0.19 | 92 | 1017.2 |
| 20260510061117 | 73 | 88 | 10.4 | 16.5 | 0.18 | 0.19 | 0.19 | 92 | 1017.0 |
| 20260510060618 | 73 | 99 | 7.8 | 14.8 | 0.18 | 0.19 | 0.19 | 92 | 1016.9 |
| 20260510060116 | 73 | 133 | 5.2 | 14.8 | 0.18 | 0.19 | 0.19 | 92 | 1016.9 |
| 20260510055617 | 73 | 143 | 8.7 | 11.3 | 0.06 | 0.07 | 0.09 | 91 | 1017.1 |
| 20260510055117 | 73 | 115 | 0.0 | 7.8 | 0.00 | 0.01 | 0.01 | 91 | 1017.2 |
| 20260510054616 | 73 | 139 | 0.0 | 7.8 | 0.00 | 0.01 | 0.01 | 92 | 1016.8 |
| 20260510054116 | 73 | 139 | 0.0 | 7.8 | 0.00 | 0.01 | 0.01 | 92 | 1016.8 |
| 20260510053616 | 72 | 138 | 0.0 | 7.8 | 0.00 | 0.01 | 0.01 | 92 | 1016.9 |
| 20260510053117 | 72 | 105 | 0.0 | 7.8 | 0.00 | 0.01 | 0.01 | 92 | 1016.6 |
| 20260510052616 | 72 | 154 | 0.0 | 0.0 | 0.00 | 0.01 | 0.01 | 92 | 1016.6 |
| 20260510052116 | 72 | 173 | 0.0 | 0.0 | 0.00 | 0.01 | 0.01 | 92 | 1016.6 |
| 20260510051616 | 72 | 155 | 0.0 | 0.0 | 0.00 | 0.01 | 0.01 | 92 | 1016.3 |
| 20260510051118 | 72 | 157 | 0.0 | 0.0 | 0.00 | 0.01 | 0.01 | 92 | 1016.6 |
| 20260510050616 | 72 | 157 | 0.0 | 0.0 | 0.00 | 0.01 | 0.01 | 91 | 1016.3 |
| 20260510050116 | 73 | 157 | 0.0 | 0.0 | 0.00 | 0.01 | 0.01 | 91 | 1016.2 |
| 20260510045615 | 73 | 266 | 0.0 | 0.0 | 0.00 | 0.01 | 0.01 | 91 | 1016.3 |
| 20260510045104 | 73 | 266 | 0.0 | 0.0 | 0.00 | 0.01 | 0.01 | 90 | 1016.4 |
| 20260510044604 | 73 | 268 | 0.0 | 0.0 | 0.00 | 0.01 | 0.01 | 90 | 1016.0 |
| 20260510044104 | 73 | 268 | 0.0 | 0.0 | 0.01 | 0.01 | 0.01 | 90 | 1016.2 |
| 20260510043539 | 73 | 268 | 0.0 | 0.0 | 0.01 | 0.01 | 0.01 | 90 | 1016.0 |
| 20260510043311 | 73 | 331 | 0.0 | 0.0 | 0.01 | 0.01 | 0.01 | 90 | 1015.9 |
| 20260510042540 | 73 | 338 | 0.0 | 0.0 | 0.01 | 0.01 | 0.01 | 90 | 1015.9 |
| 20260510042027 | 73 | 289 | 0.0 | 0.0 | 0.01 | 0.01 | 0.01 | 90 | 1016.1 |
| 20260510041527 | 73 | 353 | 0.0 | 0.0 | 0.01 | 0.01 | 0.01 | 90 | 1016.0 |
| 20260510041257 | 73 | 310 | 0.0 | 0.0 | 0.01 | 0.01 | 0.01 | 90 | 1015.9 |
| 20260510040528 | 73 | 304 | 0.0 | 8.7 | 0.01 | 0.01 | 0.01 | 91 | 1016.0 |
| 20260510040026 | 73 | 327 | 0.0 | 9.6 | 0.01 | 0.01 | 0.01 | 91 | 1015.7 |
| 20260510035526 | 73 | 28 | 0.0 | 9.6 | 0.01 | 0.01 | 0.01 | 90 | 1015.9 |
| 20260510035026 | 73 | 304 | 0.0 | 7.8 | 0.01 | 0.01 | 0.01 | 90 | 1015.9 |
| 20260510034527 | 73 | 347 | 0.0 | 13.0 | 0.01 | 0.01 | 0.01 | 90 | 1015.9 |
| 20260510034027 | 73 | 80 | 0.9 | 13.0 | 0.00 | 0.00 | 0.00 | 90 | 1016.0 |
| 20260510033526 | 73 | 52 | 9.6 | 14.8 | 0.00 | 0.00 | 0.00 | 89 | 1015.7 |
| 20260510033026 | 74 | 0 | 5.2 | 14.8 | 0.00 | 0.00 | 0.00 | 89 | 1015.7 |
| 20260510032520 | 74 | 329 | 11.3 | 14.8 | 0.00 | 0.00 | 0.00 | 88 | 1015.9 |
| 20260510032014 | 74 | 49 | 7.8 | 14.8 | 0.00 | 0.00 | 0.00 | 87 | 1015.9 |
| 20260510031520 | 74 | 28 | 7.0 | 13.9 | 0.00 | 0.00 | 0.00 | 86 | 1016.0 |
| 20260510031514 | 74 | 22 | 8.7 | 13.9 | 0.00 | 0.00 | 0.00 | 87 | 1015.9 |
| 20260510030513 | 74 | 76 | 4.3 | 17.4 | 0.00 | 0.00 | 0.00 | 86 | 1015.8 |
| 20260510030244 | 74 | 17 | 10.4 | 17.4 | 0.00 | 0.00 | 0.00 | 85 | 1015.8 |
| 20260510025745 | 74 | 44 | 8.7 | 17.4 | 0.00 | 0.00 | 0.00 | 83 | 1015.9 |
| 20260510025007 | 75 | 32 | 7.8 | 17.4 | 0.00 | 0.00 | 0.00 | 83 | 1015.8 |
| 20260510024501 | 75 | 19 | 7.0 | 16.5 | 0.00 | 0.00 | 0.00 | 83 | 1015.9 |
| 20260510024003 | 75 | 110 | 8.7 | 20.9 | 0.00 | 0.00 | 0.00 | 83 | 1016.0 |
| 20260510023502 | 75 | 46 | 13.0 | 20.9 | 0.00 | 0.00 | 0.00 | 83 | 1015.7 |
| 20260510023232 | 75 | 75 | 8.7 | 18.2 | 0.00 | 0.00 | 0.00 | 83 | 1015.8 |
| 20260510022502 | 75 | 55 | 7.0 | 20.0 | 0.00 | 0.00 | 0.00 | 82 | 1016.0 |
| 20260510022002 | 76 | 79 | 12.2 | 20.0 | 0.00 | 0.00 | 0.00 | 81 | 1016.0 |
| 20260510021508 | 76 | 33 | 9.6 | 25.2 | 0.00 | 0.00 | 0.00 | 80 | 1016.3 |
| 20260510021501 | 76 | 25 | 7.8 | 25.2 | 0.00 | 0.00 | 0.00 | 81 | 1016.0 |
| 20260510020459 | 76 | 46 | 13.0 | 17.4 | 0.00 | 0.00 | 0.00 | 82 | 1016.0 |
| 20260510020001 | 76 | 46 | 7.0 | 17.4 | 0.00 | 0.00 | 0.00 | 82 | 1016.1 |
| 20260510015452 | 76 | 29 | 9.6 | 16.5 | 0.00 | 0.00 | 0.00 | 81 | 1016.2 |
| 20260510014946 | 76 | 71 | 10.4 | 14.8 | 0.00 | 0.00 | 0.00 | 81 | 1015.9 |
| 20260510014446 | 75 | 40 | 10.4 | 16.5 | 0.00 | 0.00 | 0.00 | 80 | 1016.1 |
| 20260510013934 | 76 | 76 | 8.7 | 16.5 | 0.00 | 0.00 | 0.00 | 82 | 1016.4 |
| 20260510013439 | 76 | 60 | 9.6 | 17.4 | 0.00 | 0.00 | 0.00 | 82 | 1016.2 |
| 20260510013434 | 76 | 55 | 5.2 | 17.4 | 0.00 | 0.00 | 0.00 | 82 | 1016.2 |
| 20260510012434 | 76 | 83 | 7.8 | 20.9 | 0.00 | 0.00 | 0.00 | 82 | 1016.2 |
| 20260510011936 | 76 | 61 | 7.0 | 20.9 | 0.00 | 0.00 | 0.00 | 83 | 1016.1 |
| 20260510011705 | 76 | 73 | 12.2 | 17.4 | 0.00 | 0.00 | 0.00 | 82 | 1015.8 |
| 20260510010934 | 76 | 75 | 6.1 | 21.7 | 0.00 | 0.00 | 0.00 | 82 | 1016.0 |
| 20260510010434 | 76 | 62 | 7.0 | 21.7 | 0.00 | 0.00 | 0.00 | 83 | 1016.4 |
| 20260510005934 | 77 | 104 | 4.3 | 18.2 | 0.00 | 0.00 | 0.00 | 82 | 1016.3 |
| 20260510005432 | 77 | 63 | 10.4 | 18.2 | 0.00 | 0.00 | 0.00 | 81 | 1016.6 |
| 20260510004932 | 77 | 68 | 9.6 | 16.5 | 0.00 | 0.00 | 0.00 | 81 | 1016.5 |
| 20260510004431 | 77 | 40 | 8.7 | 16.5 | 0.00 | 0.00 | 0.00 | 82 | 1016.4 |
| 20260510004209 | 77 | 34 | 7.0 | 13.9 | 0.00 | 0.00 | 0.00 | 81 | 1016.4 |
| 20260510003932 | 77 | 76 | 8.7 | 16.5 | 0.00 | 0.00 | 0.00 | 82 | 1016.2 |
| 20260510002932 | 76 | 47 | 8.7 | 20.0 | 0.00 | 0.00 | 0.00 | 82 | 1016.2 |
| 20260510002424 | 76 | 34 | 8.7 | 20.0 | 0.00 | 0.00 | 0.00 | 84 | 1016.4 |
| 20260510001920 | 76 | 61 | 11.3 | 20.0 | 0.00 | 0.00 | 0.00 | 82 | 1016.6 |
| 20260510001418 | 77 | 87 | 7.8 | 17.4 | 0.00 | 0.00 | 0.00 | 83 | 1016.6 |
| 20260510000918 | 77 | 80 | 9.6 | 17.4 | 0.00 | 0.00 | 0.00 | 83 | 1016.5 |
| 20260510000419 | 76 | 67 | 7.0 | 21.7 | 0.00 | 0.00 | 0.00 | 83 | 1016.6 |
| 20260509235918 | 76 | 92 | 13.0 | 21.7 | 0.00 | 0.00 | 0.00 | 83 | 1016.5 |
| 20260509235419 | 76 | 11 | 7.0 | 18.2 | 0.00 | 0.00 | 0.00 | 83 | 1016.4 |
| 20260509234918 | 76 | 111 | 11.3 | 18.2 | 0.00 | 0.00 | 0.00 | 82 | 1016.4 |
| 20260509234419 | 77 | 30 | 7.8 | 16.5 | 0.00 | 0.00 | 0.00 | 82 | 1016.6 |
| 20260509233924 | 78 | 30 | 7.8 | 18.2 | 0.00 | 0.00 | 0.00 | 80 | 1016.7 |
| 20260509233919 | 78 | 70 | 4.3 | 16.5 | 0.00 | 0.00 | 0.00 | 80 | 1017.0 |
| 20260509232919 | 78 | 85 | 3.5 | 18.2 | 0.00 | 0.00 | 0.00 | 80 | 1016.9 |
| 20260509232419 | 78 | 75 | 9.6 | 17.4 | 0.00 | 0.00 | 0.00 | 81 | 1017.0 |
| 20260509231918 | 78 | 38 | 9.6 | 21.7 | 0.00 | 0.00 | 0.00 | 81 | 1017.0 |
| 20260509231649 | 77 | 61 | 7.8 | 21.7 | 0.00 | 0.00 | 0.00 | 81 | 1016.9 |
| 20260509231151 | 78 | 65 | 10.4 | 14.8 | 0.00 | 0.00 | 0.00 | 82 | 1016.9 |
| 20260509230419 | 77 | 48 | 9.6 | 20.0 | 0.00 | 0.00 | 0.00 | 81 | 1017.3 |
| 20260509225919 | 77 | 106 | 3.5 | 20.0 | 0.00 | 0.00 | 0.00 | 81 | 1017.1 |
| 20260509225419 | 78 | 102 | 3.5 | 16.5 | 0.00 | 0.00 | 0.00 | 81 | 1017.2 |
| 20260509224918 | 78 | 67 | 9.6 | 16.5 | 0.00 | 0.00 | 0.00 | 81 | 1017.1 |
| 20260509224419 | 78 | 94 | 2.6 | 16.5 | 0.00 | 0.00 | 0.00 | 81 | 1017.2 |
| 20260509223919 | 78 | 87 | 5.2 | 16.5 | 0.00 | 0.00 | 0.00 | 79 | 1017.2 |
| 20260509223419 | 79 | 92 | 8.7 | 18.2 | 0.00 | 0.00 | 0.00 | 79 | 1017.1 |
| 20260509222919 | 79 | 102 | 7.0 | 18.2 | 0.00 | 0.00 | 0.00 | 79 | 1017.5 |
| 20260509222419 | 80 | 42 | 8.7 | 16.5 | 0.00 | 0.00 | 0.00 | 80 | 1017.6 |
| 20260509221906 | 79 | 68 | 7.0 | 13.9 | 0.00 | 0.00 | 0.00 | 80 | 1017.3 |
| 20260509221638 | 79 | 59 | 9.6 | 13.9 | 0.00 | 0.00 | 0.00 | 79 | 1017.4 |
| 20260509220907 | 79 | 87 | 8.7 | 14.8 | 0.00 | 0.00 | 0.00 | 78 | 1017.4 |
| 20260509220406 | 80 | 39 | 7.0 | 14.8 | 0.00 | 0.00 | 0.00 | 77 | 1017.2 |
| 20260509215905 | 80 | 37 | 7.0 | 13.9 | 0.00 | 0.00 | 0.00 | 79 | 1017.5 |
| 20260509215405 | 79 | 97 | 7.8 | 13.9 | 0.00 | 0.00 | 0.00 | 79 | 1017.6 |
| 20260509215134 | 79 | 63 | 0.0 | 14.8 | 0.00 | 0.00 | 0.00 | 79 | 1017.5 |
| 20260509214406 | 79 | 51 | 6.1 | 14.8 | 0.00 | 0.00 | 0.00 | 78 | 1017.6 |
| 20260509213904 | 79 | 29 | 7.8 | 14.8 | 0.00 | 0.00 | 0.00 | 79 | 1017.9 |
| 20260509213403 | 78 | 68 | 0.9 | 14.8 | 0.00 | 0.00 | 0.00 | 80 | 1017.9 |
| 20260509213134 | 79 | 50 | 0.0 | 13.0 | 0.00 | 0.00 | 0.00 | 78 | 1017.9 |
| 20260509212403 | 79 | 53 | 4.3 | 13.0 | 0.00 | 0.00 | 0.00 | 78 | 1018.2 |
| 20260509212133 | 80 | 52 | 3.5 | 13.0 | 0.00 | 0.00 | 0.00 | 76 | 1018.1 |
| 20260509211401 | 80 | 62 | 7.8 | 13.0 | 0.00 | 0.00 | 0.00 | 79 | 1018.2 |
| 20260509210902 | 80 | 89 | 7.0 | 13.0 | 0.00 | 0.00 | 0.00 | 78 | 1018.3 |
| 20260509210400 | 79 | 46 | 3.5 | 13.0 | 0.00 | 0.00 | 0.00 | 79 | 1018.3 |
| 20260509205848 | 78 | 82 | 4.3 | 13.0 | 0.00 | 0.00 | 0.00 | 80 | 1018.5 |
| 20260509205348 | 78 | 42 | 8.7 | 13.0 | 0.00 | 0.00 | 0.00 | 80 | 1018.6 |
| 20260509204847 | 78 | 55 | 0.9 | 13.9 | 0.00 | 0.00 | 0.00 | 81 | 1018.1 |
| 20260509204348 | 78 | 77 | 9.6 | 13.9 | 0.00 | 0.00 | 0.00 | 80 | 1018.2 |
| 20260509204119 | 77 | 63 | 7.0 | 13.0 | 0.00 | 0.00 | 0.00 | 80 | 1018.3 |
| 20260509203618 | 78 | 61 | 1.7 | 12.2 | 0.00 | 0.00 | 0.00 | 80 | 1018.2 |
| 20260509202848 | 78 | 53 | 3.5 | 12.2 | 0.00 | 0.00 | 0.00 | 79 | 1018.3 |
| 20260509202347 | 78 | 54 | 7.8 | 12.2 | 0.00 | 0.00 | 0.00 | 78 | 1018.4 |
| 20260509201847 | 78 | 18 | 0.0 | 11.3 | 0.00 | 0.00 | 0.00 | 79 | 1018.3 |
| 20260509201347 | 78 | 51 | 5.2 | 11.3 | 0.00 | 0.00 | 0.00 | 79 | 1018.4 |
| 20260509200847 | 78 | 81 | 4.3 | 9.6 | 0.00 | 0.00 | 0.00 | 80 | 1018.7 |
| 20260509200618 | 78 | 58 | 0.9 | 12.2 | 0.00 | 0.00 | 0.00 | 80 | 1018.8 |
| 20260509195835 | 78 | 30 | 4.3 | 12.2 | 0.00 | 0.00 | 0.00 | 80 | 1018.6 |
| 20260509195334 | 77 | 77 | 7.0 | 11.3 | 0.00 | 0.00 | 0.00 | 80 | 1018.5 |
| 20260509194834 | 77 | 58 | 0.0 | 9.6 | 0.00 | 0.00 | 0.00 | 79 | 1018.6 |
| 20260509194334 | 77 | 51 | 6.1 | 11.3 | 0.00 | 0.00 | 0.00 | 80 | 1018.7 |
| 20260509193833 | 77 | 62 | 2.6 | 11.3 | 0.00 | 0.00 | 0.00 | 80 | 1018.8 |
| 20260509193334 | 76 | 24 | 5.2 | 11.3 | 0.00 | 0.00 | 0.00 | 82 | 1018.8 |
| 20260509192834 | 76 | 36 | 6.1 | 13.9 | 0.00 | 0.00 | 0.00 | 81 | 1018.6 |
| 20260509192321 | 76 | 65 | 0.0 | 13.9 | 0.00 | 0.00 | 0.00 | 82 | 1018.7 |
| 20260509191821 | 76 | 45 | 7.0 | 13.9 | 0.00 | 0.00 | 0.00 | 81 | 1018.7 |
| 20260509191322 | 76 | 41 | 7.8 | 13.9 | 0.00 | 0.00 | 0.00 | 83 | 1019.0 |
| 20260509190821 | 76 | 26 | 6.1 | 13.9 | 0.00 | 0.00 | 0.00 | 83 | 1018.8 |
| 20260509190320 | 76 | 67 | 6.1 | 11.3 | 0.00 | 0.00 | 0.00 | 82 | 1018.7 |
| 20260509185820 | 76 | 41 | 6.1 | 11.3 | 0.00 | 0.00 | 0.00 | 82 | 1018.6 |
| 20260509185320 | 76 | 62 | 5.2 | 12.2 | 0.00 | 0.00 | 0.00 | 82 | 1018.6 |
| 20260509184820 | 75 | 94 | 4.3 | 12.2 | 0.00 | 0.00 | 0.00 | 84 | 1018.8 |
| 20260509184320 | 75 | 54 | 5.2 | 12.2 | 0.00 | 0.00 | 0.00 | 83 | 1018.7 |
| 20260509184057 | 75 | 44 | 8.7 | 13.9 | 0.00 | 0.00 | 0.00 | 82 | 1018.8 |
| 20260509183819 | 75 | 56 | 7.0 | 12.2 | 0.00 | 0.00 | 0.00 | 83 | 1019.0 |
| 20260509182808 | 76 | 45 | 7.0 | 13.9 | 0.00 | 0.00 | 0.00 | 82 | 1018.9 |
| 20260509182538 | 76 | 72 | 1.7 | 14.8 | 0.00 | 0.00 | 0.00 | 81 | 1018.8 |
| 20260509181808 | 76 | 69 | 4.3 | 14.8 | 0.00 | 0.00 | 0.00 | 81 | 1018.8 |
| 20260509181308 | 76 | 36 | 9.6 | 12.2 | 0.00 | 0.00 | 0.00 | 81 | 1018.4 |
| 20260509181041 | 75 | 73 | 6.1 | 11.3 | 0.00 | 0.00 | 0.00 | 82 | 1018.5 |
| 20260509180308 | 76 | 40 | 0.9 | 11.3 | 0.00 | 0.00 | 0.00 | 82 | 1018.7 |
| 20260509180039 | 76 | 65 | 7.0 | 12.2 | 0.00 | 0.00 | 0.00 | 82 | 1018.8 |
| 20260509175308 | 76 | 44 | 5.2 | 13.9 | 0.00 | 0.00 | 0.00 | 82 | 1018.5 |
| 20260509174808 | 76 | 37 | 2.6 | 13.9 | 0.00 | 0.00 | 0.00 | 82 | 1018.4 |
| 20260509174307 | 76 | 84 | 7.0 | 11.3 | 0.00 | 0.00 | 0.00 | 82 | 1018.4 |
| 20260509173807 | 76 | 65 | 2.6 | 13.0 | 0.00 | 0.00 | 0.00 | 82 | 1018.4 |
| 20260509173255 | 76 | 40 | 5.2 | 13.0 | 0.00 | 0.00 | 0.00 | 82 | 1018.3 |
| 20260509172756 | 76 | 350 | 5.2 | 11.3 | 0.00 | 0.01 | 0.00 | 84 | 1018.3 |
| 20260509172256 | 75 | 57 | 8.7 | 11.3 | 0.00 | 0.02 | 0.00 | 84 | 1018.4 |
| 20260509171743 | 74 | 60 | 7.0 | 11.3 | 0.00 | 0.02 | 0.00 | 84 | 1018.4 |
| 20260509171503 | 74 | 32 | 0.0 | 8.7 | 0.00 | 0.02 | 0.00 | 85 | 1018.3 |
| 20260509170732 | 74 | 46 | 5.2 | 11.3 | 0.00 | 0.02 | 0.00 | 85 | 1018.4 |
| 20260509170232 | 74 | 58 | 4.3 | 11.3 | 0.00 | 0.02 | 0.00 | 86 | 1018.4 |
| 20260509165733 | 74 | 66 | 7.0 | 11.3 | 0.00 | 0.02 | 0.00 | 85 | 1018.4 |
| 20260509165232 | 74 | 57 | 7.8 | 11.3 | 0.00 | 0.03 | 0.00 | 85 | 1018.2 |
| 20260509164733 | 74 | 55 | 3.5 | 11.3 | 0.00 | 0.03 | 0.00 | 85 | 1018.3 |
| 20260509164231 | 74 | 53 | 3.5 | 11.3 | 0.00 | 0.03 | 0.00 | 85 | 1018.2 |
| 20260509163731 | 74 | 64 | 0.0 | 7.8 | 0.00 | 0.03 | 0.00 | 85 | 1018.0 |
| 20260509163233 | 74 | 44 | 1.7 | 9.6 | 0.00 | 0.04 | 0.00 | 85 | 1018.3 |
| 20260509162733 | 74 | 79 | 5.2 | 9.6 | 0.00 | 0.04 | 0.00 | 85 | 1018.1 |
| 20260509162231 | 73 | 72 | 4.3 | 8.7 | 0.00 | 0.04 | 0.00 | 85 | 1018.2 |
| 20260509161732 | 73 | 48 | 4.3 | 9.6 | 0.00 | 0.05 | 0.00 | 86 | 1018.1 |
| 20260509161232 | 73 | 65 | 2.6 | 11.3 | 0.00 | 0.05 | 0.00 | 85 | 1018.0 |
| 20260509160951 | 73 | 68 | 6.1 | 12.2 | 0.00 | 0.07 | 0.00 | 85 | 1017.8 |
| 20260509160220 | 73 | 69 | 5.2 | 12.2 | 0.00 | 0.09 | 0.00 | 86 | 1017.8 |
| 20260509155719 | 73 | 112 | 5.2 | 11.3 | 0.00 | 0.15 | 0.00 | 86 | 1017.8 |
| 20260509155220 | 73 | 78 | 0.0 | 12.2 | 0.00 | 0.16 | 0.00 | 85 | 1017.7 |
| 20260509154719 | 73 | 42 | 7.0 | 12.2 | 0.00 | 0.19 | 0.00 | 84 | 1017.7 |
| 20260509154222 | 74 | 52 | 4.3 | 13.0 | 0.00 | 0.25 | 0.00 | 85 | 1017.4 |
| 20260509153720 | 73 | 98 | 1.7 | 13.0 | 0.00 | 0.28 | 0.00 | 85 | 1017.5 |
| 20260509153450 | 73 | 91 | 5.2 | 11.3 | 0.00 | 0.35 | 0.00 | 85 | 1017.6 |
| 20260509152722 | 73 | 34 | 2.6 | 9.6 | 0.00 | 0.43 | 0.00 | 85 | 1017.3 |
| 20260509152220 | 73 | 55 | 0.0 | 9.6 | 0.00 | 0.50 | 0.00 | 86 | 1017.5 |
| 20260509151720 | 73 | 61 | 0.9 | 11.3 | 0.00 | 0.50 | 0.00 | 87 | 1017.5 |
| 20260509151220 | 73 | 42 | 1.7 | 9.6 | 0.00 | 0.50 | 0.00 | 86 | 1017.4 |
| 20260509150720 | 74 | 58 | 2.6 | 11.3 | 0.00 | 0.50 | 0.00 | 87 | 1017.0 |
| 20260509150219 | 74 | 31 | 7.0 | 11.3 | 0.00 | 0.50 | 0.00 | 87 | 1017.5 |
| 20260509145721 | 73 | 71 | 5.2 | 7.8 | 0.00 | 0.50 | 0.00 | 87 | 1017.1 |
| 20260509145219 | 73 | 69 | 0.0 | 0.0 | 0.00 | 0.50 | 0.00 | 86 | 1017.3 |
| 20260509144720 | 73 | 73 | 0.0 | 7.0 | 0.00 | 0.50 | 0.00 | 86 | 1017.3 |
| 20260509144220 | 74 | 81 | 0.0 | 7.0 | 0.00 | 0.50 | 0.00 | 85 | 1017.4 |
| 20260509143719 | 74 | 52 | 0.0 | 4.3 | 0.00 | 0.50 | 0.00 | 84 | 1017.3 |
| 20260509143451 | 74 | 62 | 0.0 | 7.0 | 0.00 | 0.50 | 0.00 | 84 | 1017.2 |
| 20260509142720 | 74 | 54 | 3.5 | 7.8 | 0.00 | 0.50 | 0.00 | 83 | 1017.3 |
| 20260509142220 | 74 | 81 | 0.0 | 7.8 | 0.00 | 0.50 | 0.00 | 83 | 1017.4 |
| 20260509141720 | 74 | 86 | 0.0 | 7.8 | 0.00 | 0.50 | 0.00 | 85 | 1017.2 |
| 20260509141452 | 74 | 88 | 2.6 | 7.8 | 0.00 | 0.50 | 0.00 | 84 | 1017.0 |
| 20260509140720 | 74 | 91 | 7.0 | 7.0 | 0.00 | 0.50 | 0.00 | 85 | 1017.2 |
| 20260509140222 | 73 | 63 | 0.0 | 0.0 | 0.00 | 0.50 | 0.00 | 85 | 1016.9 |
| 20260509135719 | 73 | 113 | 0.0 | 0.0 | 0.00 | 0.50 | 0.00 | 84 | 1017.0 |
| 20260509135222 | 73 | 113 | 0.0 | 0.0 | 0.00 | 0.50 | 0.00 | 84 | 1017.1 |
| 20260509134719 | 73 | 86 | 0.0 | 0.0 | 0.00 | 0.50 | 0.00 | 84 | 1017.0 |
| 20260509134208 | 73 | 84 | 0.0 | 0.0 | 0.00 | 0.50 | 0.00 | 84 | 1016.9 |
| 20260509133708 | 73 | 71 | 0.0 | 7.8 | 0.00 | 0.50 | 0.00 | 84 | 1016.9 |
| 20260509133208 | 73 | 64 | 5.2 | 7.8 | 0.00 | 0.50 | 0.00 | 84 | 1017.2 |
| 20260509132708 | 73 | 90 | 0.0 | 0.0 | 0.00 | 0.50 | 0.00 | 85 | 1017.2 |
| 20260509132207 | 73 | 115 | 0.0 | 5.2 | 0.00 | 0.50 | 0.00 | 85 | 1016.8 |
| 20260509131707 | 73 | 115 | 0.0 | 7.8 | 0.00 | 0.50 | 0.00 | 85 | 1017.1 |
| 20260509131208 | 74 | 97 | 0.0 | 7.8 | 0.00 | 0.50 | 0.00 | 85 | 1017.1 |
| 20260509130655 | 74 | 110 | 3.5 | 7.8 | 0.00 | 0.50 | 0.00 | 85 | 1017.3 |
| 20260509130415 | 74 | 86 | 0.0 | 7.8 | 0.00 | 0.50 | 0.00 | 85 | 1017.3 |
| 20260509125646 | 74 | 78 | 0.0 | 7.0 | 0.00 | 0.50 | 0.00 | 84 | 1017.2 |
| 20260509125416 | 74 | 56 | 0.0 | 7.0 | 0.00 | 0.50 | 0.00 | 84 | 1017.4 |
| 20260509124644 | 74 | 72 | 0.0 | 8.7 | 0.00 | 0.50 | 0.00 | 84 | 1017.3 |
| 20260509124143 | 74 | 72 | 0.0 | 12.2 | 0.00 | 0.50 | 0.00 | 84 | 1017.5 |
| 20260509123914 | 74 | 78 | 3.5 | 12.2 | 0.00 | 0.50 | 0.00 | 83 | 1017.5 |
| 20260509123414 | 74 | 66 | 0.9 | 8.7 | 0.00 | 0.50 | 0.00 | 84 | 1017.6 |
| 20260509122632 | 74 | 39 | 0.0 | 9.6 | 0.00 | 0.50 | 0.00 | 84 | 1017.8 |
| 20260509122131 | 74 | 44 | 0.0 | 12.2 | 0.00 | 0.50 | 0.00 | 85 | 1017.8 |
| 20260509121632 | 74 | 101 | 4.3 | 12.2 | 0.00 | 0.50 | 0.00 | 85 | 1017.5 |
| 20260509121132 | 74 | 87 | 0.0 | 13.9 | 0.00 | 0.50 | 0.00 | 86 | 1017.6 |
| 20260509120631 | 74 | 39 | 7.8 | 13.9 | 0.00 | 0.50 | 0.00 | 85 | 1017.9 |
| 20260509120139 | 74 | 52 | 7.0 | 9.6 | 0.00 | 0.50 | 0.00 | 84 | 1018.0 |
| 20260509120133 | 74 | 55 | 9.6 | 12.2 | 0.00 | 0.50 | 0.00 | 85 | 1017.9 |
| 20260509115131 | 74 | 55 | 0.9 | 9.6 | 0.00 | 0.50 | 0.00 | 86 | 1017.8 |
| 20260509114631 | 74 | 74 | 4.3 | 11.3 | 0.00 | 0.50 | 0.00 | 84 | 1018.2 |
| 20260509114131 | 74 | 93 | 4.3 | 11.3 | 0.00 | 0.50 | 0.00 | 84 | 1017.8 |
| 20260509113632 | 74 | 60 | 4.3 | 9.6 | 0.00 | 0.50 | 0.00 | 84 | 1018.1 |
| 20260509113129 | 74 | 91 | 7.0 | 11.3 | 0.00 | 0.50 | 0.00 | 84 | 1018.3 |
| 20260509112629 | 74 | 53 | 7.0 | 12.2 | 0.00 | 0.50 | 0.00 | 83 | 1018.2 |
| 20260509112131 | 74 | 55 | 0.0 | 12.2 | 0.00 | 0.50 | 0.00 | 83 | 1018.2 |
| 20260509111630 | 74 | 71 | 6.1 | 12.2 | 0.00 | 0.50 | 0.00 | 84 | 1018.2 |
| 20260509111129 | 74 | 61 | 0.0 | 11.3 | 0.00 | 0.50 | 0.00 | 83 | 1018.4 |
| 20260509110629 | 74 | 51 | 4.3 | 11.3 | 0.00 | 0.50 | 0.00 | 84 | 1018.2 |
| 20260509110400 | 75 | 61 | 6.1 | 11.3 | 0.00 | 0.50 | 0.00 | 84 | 1018.2 |
| 20260509105629 | 74 | 44 | 2.6 | 11.3 | 0.00 | 0.50 | 0.00 | 83 | 1018.3 |